Dewpoint
57 49 46 39 33 30 29 32 35 33 35 39 37 43 49 50 52 49 61 63 65 67 68 68 70 70 70 70 70 71 70 68 66 66 66 65 67 66 65 65 66 65 64 64 65 66 67 67 67
52 43 38 35 29 26 21 30 33 38 38 37 37 40 45 53 57 59 60 63 66 67 67 68 69 70 70 70 70 70 70 68 66 66 65 66 68 67 65 64 66 64 63 64 65 66 67 67 66
48 43 31 31 29 22 25 31 35 38 38 36 36 43 47 55 57 58 62 63 64 65 66 67 69 70 70 70 70 70 69 68 66 65 64 65 67 66 65 64 64 64 63 63 65 65 66 65 64
39 34 29 22 26 18 24 33 32 32 32 33 42 45 50 55 57 60 61 61 63 65 67 68 69 70 70 70 70 69 69 67 65 66 65 64 65 66 65 64 64 65 64 63 65 65 65 63 63
33 33 27 26 22 20 29 33 32 30 31 32 35 47 52 58 60 60 59 61 64 66 67 68 69 69 70 70 69 69 68 66 65 65 65 64 64 64 65 64 64 64 65 64 64 64 64 63 62
30 31 26 24 20 19 25 30 29 27 30 32 46 49 52 58 59 59 60 61 65 66 67 67 66 67 69 69 69 69 68 67 66 65 65 64 63 64 65 65 64 64 65 64 64 64 63 62 62
30 30 26 26 20 20 24 27 25 24 27 26 41 48 52 57 58 59 62 62 65 66 66 66 66 66 66 67 68 68 68 67 66 66 66 66 66 65 66 67 66 65 65 65 64 64 63 62 61
31 31 28 25 20 22 25 26 23 27 33 36 44 48 50 55 58 59 63 62 63 63 64 63 64 65 65 65 64 65 66 66 66 65 64 63 63 63 63 64 66 65 65 65 65 64 63 62 60
31 26 25 25 22 24 26 24 26 30 33 38 45 46 51 57 58 59 63 62 62 62 61 61 62 63 64 64 63 63 63 64 63 62 61 60 60 60 60 61 64 65 64 64 64 64 63 61 60
27 26 26 26 24 25 25 24 24 30 34 38 53 54 55 56 56 56 61 62 61 61 60 60 60 62 63 63 64 64 62 62 61 61 60 60 59 60 59 58 60 63 62 62 62 60 61 60 58
27 25 26 22 26 27 26 25 24 30 29 37 52 54 54 55 55 56 57 61 62 62 62 62 60 61 61 62 63 63 63 62 61 59 59 59 59 59 59 58 58 57 57 59 59 56 57 57 56
23 23 24 30 28 27 26 25 22 24 24 34 54 55 55 54 55 56 56 59 61 62 63 61 61 60 60 61 62 62 62 62 61 60 59 58 57 57 59 58 58 57 57 58 58 57 56 55 55
25 23 26 28 25 27 25 24 22 23 25 38 53 54 54 54 54 55 57 58 60 61 62 62 61 60 61 60 61 61 61 62 61 61 59 58 58 57 58 58 59 58 57 57 56 55 55 55 54
26 27 25 26 25 25 23 23 21 23 25 43 51 52 54 54 54 54 55 56 58 60 61 62 61 62 61 60 62 62 61 61 61 61 59 59 58 58 57 57 57 57 56 55 55 54 54 54 54
26 23 23 24 25 23 23 22 19 23 25 28 41 48 50 52 52 53 54 55 57 59 61 62 62 62 63 61 62 62 63 62 61 61 60 59 58 57 57 57 57 56 56 55 53 53 53 53 53
23 23 20 23 24 26 22 17 21 22 22 23 27 34 44 48 50 51 52 53 56 57 60 62 62 62 63 62 63 62 62 62 61 61 61 60 59 58 56 57 57 57 56 55 54 53 53 53 52
23 18 19 22 23 22 18 16 19 18 18 19 21 24 32 42 45 49 51 52 54 56 59 61 62 62 62 62 63 63 63 62 62 62 62 61 60 59 58 56 56 56 56 55 54 54 53 52 52
19 17 18 19 21 20 16 17 16 19 15 14 14 21 31 36 40 45 51 52 54 56 58 62 62 62 62 63 63 64 63 63 64 63 62 61 62 61 59 58 56 56 55 56 54 54 54 53 52
17 17 17 19 22 20 17 15 16 17 19 18 14 15 25 30 34 39 48 52 54 56 58 61 61 62 62 62 62 62 62 63 63 63 63 62 62 62 61 60 59 58 57 56 55 55 54 53 53
18 16 17 22 23 18 19 18 19 19 19 18 19 16 19 22 23 26 29 38 51 54 57 59 62 62 62 61 62 62 62 63 63 63 63 63 62 62 62 61 61 60 58 56 56 55 54 54 53
15 15 16 15 22 21 15 9 18 20 17 19 19 20 20 22 22 22 25 26 28 34 47 56 60 63 62 62 61 61 62 61 61 61 62 62 63 62 62 62 61 60 59 58 57 56 55 54 54
12 16 21 22 12 7 8 -0 7 16 16 18 18 19 21 28 30 31 30 36 37 38 39 36 52 60 63 62 61 61 60 59 60 61 61 62 62 62 62 61 61 60 59 58 58 57 57 55 54
15 24 22 21 19 14 14 1 2 14 14 15 17 23 27 29 35 38 41 43 45 45 40 36 42 54 60 62 61 61 60 58 59 60 61 61 61 61 61 61 61 60 60 59 58 57 57 56 55
22 23 21 23 19 10 13 2 1 9 10 15 23 29 33 36 39 41 45 48 47 43 38 37 48 53 57 61 61 60 59 59 59 58 58 58 59 59 58 59 58 59 58 57 57 57 57 56 56
21 12 14 11 14 9 17 9 4 10 11 18 27 31 33 36 38 41 45 47 48 48 49 50 52 52 54 55 58 58 58 58 57 56 56 55 54 49 47 48 47 48 48 48 49 50 50 50 51
18 13 14 8 15 10 14 12 11 18 22 28 31 33 35 37 39 40 41 42 45 49 49 50 51 51 52 53 52 55 55 53 49 49 46 45 43 43 43 43 44 44 44 45 45 46 46 46 46
19 15 18 16 14 16 10 10 15 21 25 31 33 34 35 37 38 39 39 40 40 41 43 45 45 44 43 43 43 43 43 42 41 42 42 41 40 40 40 40 40 40 41 41 42 43 42 43 43
18 17 13 15 9 9 9 8 6 18 19 31 33 33 35 36 37 38 38 38 39 39 40 40 40 40 40 40 40 39 39 38 38 37 37 37 37 37 37 37 37 37 38 38 39 39 40 40 40
15 12 13 18 17 13 10 8 12 16 19 28 32 34 35 35 37 38 38 38 39 39 39 39 38 38 37 36 36 35 35 35 35 35 35 35 36 35 35 36 35 36 36 36 36 37 37 37 37
21 14 13 13 11 17 17 7 21 19 20 26 32 33 34 35 37 38 38 38 37 36 35 35 35 35 35 34 34 34 33 34 33 33 34 34 34 34 34 33 33 33 34 34 34 35 36 34 34
Lifted_Index
8 8 7 6 6 5 5 5 4 4 4 4 3 3 2 1 -0 -1 -2 -2 -2 -3 -3 -4 -4 -5 -4 -4 -4 -4 -3 -1 -0 0 0 0 0 0 1 2 2 2 2 2 1 1 0 0 0
8 8 7 6 6 6 5 5 5 5 4 4 4 3 2 1 -0 -1 -1 -2 -2 -2 -3 -4 -4 -4 -4 -4 -4 -3 -2 -1 -0 0 1 0 -0 0 1 2 2 2 2 2 2 1 1 1 1
8 7 7 6 6 6 6 5 5 5 5 4 4 3 2 0 -0 -1 -1 -1 -1 -2 -2 -3 -3 -4 -4 -3 -3 -3 -2 -1 0 1 1 1 0 0 1 2 2 2 2 2 2 1 1 2 2
7 7 6 6 6 7 6 6 5 5 5 5 4 3 1 -0 -0 -1 -1 -0 -0 -1 -2 -2 -3 -3 -3 -3 -3 -2 -1 -0 1 1 1 1 1 1 1 2 2 2 2 2 2 2 2 3 3
6 6 6 6 6 7 6 6 6 6 6 5 4 2 1 -0 -1 -1 -0 -0 -0 -0 -1 -2 -2 -2 -3 -3 -2 -2 -1 0 1 1 1 1 2 2 2 2 2 2 2 2 2 2 3 4 4
6 6 6 6 6 6 6 6 6 6 6 5 3 2 1 -0 -1 -1 -0 -0 -0 -0 -1 -1 -1 -1 -2 -2 -2 -1 -1 0 1 1 1 1 2 2 2 2 2 2 2 2 2 3 3 4 4
6 6 6 6 6 6 6 6 6 6 6 5 3 2 1 -0 -1 -1 -1 -1 -0 -0 0 0 0 0 -1 -1 -1 -1 -0 0 1 1 1 2 2 2 2 1 1 1 2 2 2 2 3 4 4
6 6 6 6 6 6 6 6 6 6 5 4 3 2 1 -0 -1 -1 -1 -1 -1 0 1 1 1 1 0 -0 -0 0 1 1 2 2 3 3 3 3 3 2 1 1 2 2 2 2 3 4 5
6 6 6 6 6 7 7 6 6 6 5 4 3 2 1 -0 -1 -1 -1 -1 -1 -0 1 2 2 1 1 1 0 1 1 2 3 3 4 4 4 4 4 3 3 2 2 3 3 3 4 5 5
6 6 6 6 7 7 7 7 6 6 5 3 2 1 0 -0 -1 -1 -1 -1 -1 -0 0 1 1 1 1 1 1 1 2 2 3 4 4 4 4 4 4 5 4 4 4 4 4 5 5 5 5
5 6 6 6 7 7 7 7 7 6 6 4 2 0 0 -0 -0 -1 -1 -1 -1 -0 -0 0 1 1 1 1 1 1 2 2 3 3 4 4 4 4 5 5 5 5 5 5 5 5 5 5 5
5 5 6 7 7 7 7 7 7 7 6 4 2 0 0 0 -0 -1 -1 -1 -1 -0 -0 -0 0 1 1 1 1 1 2 2 2 3 4 4 5 5 4 4 5 5 5 5 5 5 5 5 6
5 5 6 7 7 7 7 7 7 7 7 5 2 1 0 0 0 -0 -1 -1 -1 -0 -0 -0 -0 0 1 1 1 1 1 2 2 2 3 4 5 4 4 4 4 4 4 4 4 5 5 5 6
6 6 6 7 7 7 7 7 7 7 7 5 2 1 1 0 0 0 -0 -0 -0 -0 -1 -1 -0 -0 0 1 1 1 1 2 2 2 3 4 4 4 3 3 3 3 4 4 4 4 5 5 5
7 7 7 6 7 7 7 7 7 7 7 6 4 2 1 1 1 0 0 -0 -0 -0 -1 -1 -1 -0 0 0 0 1 1 1 1 2 2 3 3 3 3 3 3 3 3 4 4 4 4 5 5
7 7 7 6 7 7 7 6 7 8 8 7 6 4 3 2 1 1 1 1 0 -0 -0 -0 -0 -0 0 0 0 0 1 1 1 1 2 2 2 3 3 2 2 2 3 3 4 4 4 4 5
7 7 7 7 6 7 6 6 7 8 8 8 7 6 5 4 3 2 2 2 1 1 0 -0 -0 -0 0 0 0 -0 0 0 1 1 1 1 2 2 2 2 2 2 3 3 3 4 4 4 4
7 7 7 6 6 6 6 6 7 8 8 8 8 7 7 6 4 3 3 2 2 2 1 0 0 -0 0 0 0 -0 -0 0 0 0 0 1 1 1 1 2 2 2 2 3 3 3 4 4 4
7 7 7 6 6 6 6 6 7 7 7 7 7 7 8 7 7 5 4 3 2 2 1 1 0 0 0 1 1 0 0 0 0 0 0 1 1 1 1 1 1 2 2 2 2 3 3 3 3
7 7 6 6 6 6 6 6 6 7 7 7 7 8 8 8 8 7 6 4 3 2 1 1 0 -0 0 0 1 1 1 1 1 1 1 1 1 1 1 1 1 1 1 2 2 2 2 2 2
7 7 6 6 5 5 5 5 6 6 7 7 8 8 8 8 8 9 8 7 5 3 2 1 0 -0 -0 -0 0 1 1 1 1 1 1 1 1 1 1 1 1 1 1 1 2 2 2 2 2
7 6 6 5 5 5 5 4 5 6 6 6 7 8 8 8 8 9 9 9 8 7 5 3 1 0 -0 -1 -0 0 1 1 2 1 1 1 1 1 1 1 1 1 1 2 2 2 2 3 3
6 6 6 5 5 4 4 4 4 5 5 6 6 7 8 8 9 9 9 9 10 10 9 7 4 2 0 -0 -0 0 1 2 2 2 2 2 2 2 2 2 2 2 2 3 3 3 3 4 4
6 5 5 4 4 4 4 4 4 5 5 5 6 7 7 8 9 9 9 9 10 10 10 9 7 4 2 1 0 1 1 2 2 2 2 2 2 2 3 3 4 4 5 5 5 5 5 5 6
5 5 4 3 2 3 4 4 4 5 5 6 6 6 7 8 8 9 9 9 9 10 10 9 7 5 3 2 1 2 2 3 3 3 3 3 4 4 5 6 7 7 8 8 9 9 8 8 8
5 5 4 2 2 3 4 4 5 6 6 6 6 6 7 7 8 9 9 9 9 9 9 8 7 5 4 3 2 3 3 4 4 5 5 5 6 7 8 9 10 11 11 12 12 12 12 11 11
5 5 4 3 3 3 3 4 5 5 6 6 6 6 6 7 8 9 9 9 9 9 9 8 7 6 6 5 4 5 5 6 6 7 8 8 9 10 11 12 12 13 13 13 13 14 14 14 14
5 5 5 4 3 2 2 3 4 5 5 5 5 6 6 7 8 9 9 9 9 9 9 9 8 8 7 7 7 7 8 9 9 9 10 11 12 12 13 13 13 14 14 14 14 15 15 15 15
5 5 5 4 3 2 2 3 4 4 4 4 5 6 7 8 9 9 9 9 9 9 9 9 9 9 9 9 9 9 10 10 11 11 11 12 13 13 13 13 14 14 15 15 15 15 15 15 15
5 5 4 4 3 3 2 3 4 5 4 5 5 6 7 8 9 9 9 9 9 9 9 9 9 9 9 10 10 10 10 11 11 12 12 13 13 13 14 14 15 15 16 16 16 16 15 15 15